Regional Weather Roundup
Issued by NWS Lake Charles, LA

Home | Current Version | Previous Version | Text Only | Print | Product List | Glossary On
Versions: 1 2 3 4 5 6 7 8 9 10 11 12 13 14 15 16 17 18 19 20 21 22 23 24 25 26 27
000
ASUS44 KLCH 250910
RWRLCH
REGIONAL WEATHER ROUNDUP
NATIONAL WEATHER SERVICE LAKE CHARLES LA
400 AM CDT WED MAY 25 2016

Note: "fair" indicates few or no clouds below 12,000 feet with no
significant weather and/or obstructions to visibility.


ACROSS SOUTHEAST TEXAS

CITY           SKY/WX    TMP DP  RH WIND       PRES   REMARKS
BEAUMONT       PTCLDY    78  74  87 S10       29.99F
BEAUMONT CITY  FAIR      78  74  89 SE5       30.00F
ORANGE         PTSUNNY   78  74  87 S6        30.02S
JASPER         MOCLDY    75  73  92 SE3       30.03S
$$

ACROSS CENTRAL LOUISIANA

CITY           SKY/WX    TMP DP  RH WIND       PRES   REMARKS
LEESVILLE      CLOUDY    76  74  92 S12       30.03R
FULLERTON      CLOUDY    77  72  84 VRB5      30.01R
ALEXANDRIA INT CLOUDY    74  73  97 SE6       30.03R
ESLER FIELD    MOCLDY    74  71  91 SE5       30.06R
DERIDDER       CLOUDY    76  75  96 SE6       30.04R
OAKDALE        PTSUNNY   75  74  97 CALM      30.03R
OPELOUSAS      CLOUDY    74  73  95 SE8       30.05R
$$

ACROSS SOUTHWEST AND SOUTH CENTRAL LOUISIANA

CITY           SKY/WX    TMP DP  RH WIND       PRES   REMARKS
SULPHUR        CLOUDY    80  76  87 SE8       30.01S
LAKE CHARLES   CLOUDY    78  75  90 SE5       30.01F
CHENNAULT INT  CLOUDY    76  75  95 SE6       30.01S
CAMERON PHI    PTSUNNY   79  77  94 S16       30.03F
DEQUINCY       CLOUDY    76  76 100 SE3       30.01S
JENNINGS       FAIR      75  73  94 SE6       30.02S
LAFAYETTE      MOCLDY    75  73  93 CALM      30.04S
NEW IBERIA     PTCLDY    74  73  97 SE8       30.05F
ABBEVILLE      FAIR      76  75  97 SE8       30.04S
PATTERSON      PTCLDY    73  73 100 SE3       30.06S
SALT POINT       N/A     76  75  97 SE5       30.03F
$$

SELECTED SITES ACROSS THE REGION

CITY           SKY/WX    TMP DP  RH WIND       PRES   REMARKS
HOUSTON BUSH   MOCLDY    77  75  93 SE8       29.98S
HOUSTON HOBBY  MOCLDY    79  76  90 SE6       29.97F
GALVESTON      CLOUDY    79  78  97 SE14      29.98F
COLLEGE STAT   CLOUDY    78  75  90 SE13      29.96S
CONROE         CLOUDY    76  75  97 SE9       29.98S
HUNTSVILLE     CLOUDY    79  73  82 SE8       29.98S
LUFKIN         CLOUDY    76  72  87 S8        29.98F
SHREVEPORT     CLOUDY    76  73  91 S7        30.00F
MONROE         PTCLDY    73  71  93 S7        30.02F
NATCHEZ MS     MOCLDY    72  68  88 S8        30.07S
BATON ROUGE    MOCLDY    73  70  90 CALM      30.08R
N.O. INTL ARPT PTCLDY    76  72  87 SE7       30.07F
SLIDELL        PTCLDY    67  66  97 CALM      30.08F
$$

MARINE REPORTS

STATION/POSITION TIME  SKY/WX   TEMP    WIND        PRES    VSBY
                                AIR SEA DIR/SP/G
                 (UTC)          (F)     (DEG/KT/KT) (MB)    (MI)
BUOY 30 S HIGH I 0850            80 80  150/ 16/ 17 1014.7S
WVE H/P(F/S)=  4/ 5

SEA RIM ST PARK  0900            79     150/ 12/ 16 1016.2F
PORT ARTHUR      0800               78  150/  9/ 15 1016.2F
SABINE PASS N    0800            79 81  160/ 10/ 14 1017.3F
TEXAS POINT      NOT AVBL
CALCASIEU PASS   0800            79 81  160/ 17/ 19 1015.3F
LK CHARLES BEACH 0800            78 77              1017.0F
MARSH ISLAND     0800            80                   N/A
FRESH WATER LOCK 0800            78 81  140/ 10/ 15 1017.9F
AMERADA PASS     0800            77 75  130/  4/  8 1017.6F
$$




USA.gov is the U.S. government's official web portal to all federal, state and local government web resources and services.